Theta_e
304 298 298 299 298 298 298 297 296 296 296 295 295 295 295 296 296 295 295 295 296 296 296 296 296 296 296 295 295 295 294 294 294 294 294 294 294 294 293 293 293 293 292 292 292 291 290 289 289 288 288 288 288 287 287 286 286 286 286 286 286 286
299 296 296 296 296 296 296 296 296 295 295 294 294 294 294 294 294 294 294 294 294 295 295 296 296 296 296 295 295 294 294 294 294 294 293 294 294 293 293 293 293 292 292 292 291 291 290 289 289 288 288 287 287 287 286 286 286 286 286 286 285 285
296 295 295 295 295 295 295 295 295 295 295 295 294 294 293 293 293 294 294 293 293 293 294 295 295 295 295 294 294 294 294 294 294 294 294 293 293 293 293 293 293 292 292 292 291 291 290 289 289 288 288 287 287 286 286 286 286 286 285 285 285 285
295 294 294 295 294 295 295 295 295 295 295 295 294 294 294 294 294 294 294 294 294 294 294 294 294 294 294 294 294 294 294 294 294 294 293 293 293 293 293 293 292 292 292 292 291 291 290 289 289 289 288 287 286 286 286 286 285 285 285 285 285 285
294 294 294 294 294 294 295 295 295 295 295 295 295 294 294 294 294 294 294 294 294 294 294 293 293 293 293 294 294 294 294 294 293 293 293 293 292 292 292 292 292 292 291 291 291 290 290 289 289 288 288 287 286 286 285 285 285 285 285 284 285 285
293 293 293 293 294 294 294 294 294 295 295 295 295 295 295 294 294 294 294 294 294 294 294 293 293 293 293 293 294 294 294 294 293 293 293 292 292 291 291 291 291 291 291 290 290 290 289 289 289 288 288 287 287 286 285 285 285 285 285 285 285 285
293 293 293 293 293 293 293 294 294 294 294 294 294 294 294 294 294 294 294 293 294 294 293 293 293 293 293 293 293 294 294 293 293 292 292 291 291 291 291 291 291 290 290 290 290 290 290 289 288 288 287 287 286 286 285 285 284 284 284 284 284 284
293 293 292 293 293 293 293 293 293 293 293 293 293 293 293 294 294 293 293 293 293 292 292 292 292 293 293 293 293 293 293 293 292 292 291 291 291 290 290 290 290 290 290 290 290 289 289 289 288 287 287 286 286 285 284 284 284 284 284 284 284 284
292 292 292 292 292 292 292 292 292 292 292 291 291 291 292 293 293 293 293 292 292 292 291 292 292 292 293 293 293 293 292 292 292 292 291 291 290 290 290 289 289 289 289 289 289 289 288 288 287 287 286 286 285 285 284 284 283 283 283 283 283 283
292 291 291 291 292 292 291 291 291 291 291 291 290 290 291 291 292 292 293 292 292 292 291 291 292 292 292 293 292 292 292 291 291 291 291 291 290 290 290 289 289 289 289 288 288 288 288 287 287 287 286 285 285 284 284 283 283 283 282 282 283 283
291 291 290 290 291 291 291 291 291 291 290 290 290 290 290 290 291 291 292 291 291 291 291 291 291 291 292 292 292 291 291 291 291 291 290 290 290 290 289 289 288 288 288 288 287 287 287 287 287 286 286 285 284 284 283 283 282 282 282 282 282 281
291 290 290 290 290 291 290 290 290 290 290 290 289 290 290 290 290 290 291 291 291 291 290 290 290 290 290 291 291 291 291 291 290 290 290 290 289 289 288 288 288 287 287 287 287 287 286 286 286 286 286 285 285 284 283 282 282 282 282 281 280 280
291 290 289 289 290 290 290 290 290 290 290 289 289 289 290 290 290 289 290 290 290 290 290 289 289 289 289 289 290 290 290 290 290 290 290 289 289 288 288 287 287 287 287 287 286 286 286 286 286 285 285 285 285 284 283 282 282 281 281 281 280 280
291 291 290 289 290 290 290 290 289 289 289 289 289 289 289 289 289 289 289 290 290 290 290 289 289 288 288 288 289 289 289 289 289 289 289 289 288 288 287 287 287 286 286 286 286 286 286 286 285 285 285 284 284 284 284 282 282 281 280 280 280 279
290 290 290 289 290 290 290 289 289 289 289 288 289 289 289 289 289 289 289 289 289 289 289 289 289 288 288 288 288 288 288 288 288 289 288 288 288 287 287 286 286 286 286 286 286 285 285 285 285 284 284 284 284 284 283 282 281 281 280 280 279 279
289 290 289 289 290 290 289 289 289 288 288 288 288 289 289 289 289 289 289 289 289 289 289 289 289 289 289 288 287 287 287 288 288 288 288 288 287 286 286 286 285 285 285 285 285 285 285 285 284 284 284 284 284 283 283 282 281 280 280 279 279 279
289 289 289 289 289 289 288 288 287 287 287 287 288 288 288 288 288 288 289 289 289 288 288 288 289 289 289 289 288 287 287 287 287 287 287 287 287 286 286 285 285 285 285 285 284 284 284 284 284 283 283 283 284 284 283 282 281 280 279 279 278 278
289 289 289 289 288 287 287 287 286 286 286 287 287 287 287 287 288 288 288 288 288 288 288 288 288 288 289 289 288 287 286 286 286 287 286 286 286 286 285 285 285 284 284 284 284 284 284 283 283 283 283 284 284 284 283 281 280 279 278 278 278 277
288 288 288 288 287 286 286 286 285 285 285 286 286 286 286 286 287 287 288 288 288 288 287 287 288 288 288 289 288 288 287 286 286 286 286 285 285 285 285 284 284 284 284 284 284 283 283 283 282 282 283 284 284 284 283 281 279 278 278 277 277 276
288 287 287 287 286 285 285 284 283 284 285 285 285 285 285 285 286 286 287 287 287 287 287 287 288 288 288 288 288 288 288 287 286 285 285 285 285 284 284 284 284 284 283 283 283 283 282 282 282 282 283 284 284 284 283 280 278 277 277 277 276 276
287 287 286 286 285 284 284 282 282 283 283 283 283 284 284 284 285 285 286 286 286 286 287 287 288 288 288 288 288 288 288 287 286 285 285 284 284 284 284 284 283 283 283 283 283 282 282 282 281 281 283 284 285 284 283 280 278 277 276 276 276 276
286 285 285 284 284 283 282 281 281 282 282 282 282 282 283 283 283 284 284 284 284 285 286 288 288 288 288 288 288 287 287 287 286 285 284 284 283 283 283 282 282 282 282 282 282 281 281 281 280 281 283 284 285 285 282 279 278 277 276 276 276 276
284 284 283 283 282 281 280 280 280 280 280 281 281 281 282 282 282 282 282 281 282 284 287 288 288 287 287 287 287 287 287 286 286 285 284 283 283 282 282 281 281 281 281 281 281 280 280 280 280 280 282 284 285 284 282 280 278 277 277 276 276 276
283 282 282 281 281 280 279 279 279 279 279 280 280 280 280 280 280 280 279 280 282 285 286 286 285 285 286 286 286 286 286 286 285 284 283 282 282 281 280 280 280 280 279 279 279 279 279 279 279 279 281 283 285 284 282 280 279 278 277 276 276 276
281 281 280 280 279 278 278 278 278 278 278 279 279 279 279 278 278 277 278 279 282 283 283 282 282 283 284 284 285 285 285 285 285 283 282 281 281 280 279 279 279 278 278 278 278 278 278 278 278 279 279 281 284 285 283 281 279 278 277 277 277 276
280 279 279 278 277 277 277 277 276 277 277 277 278 277 276 276 276 276 277 279 280 280 279 279 279 279 280 281 283 284 284 284 284 282 282 280 279 279 278 278 277 277 276 276 276 276 277 277 277 277 278 280 283 285 284 281 279 278 277 277 277 276
278 278 277 277 276 276 275 275 276 276 276 276 276 275 274 274 275 276 277 277 276 276 276 276 276 276 277 279 281 282 283 283 283 281 280 280 279 278 278 277 277 276 276 276 276 275 275 276 276 276 277 278 281 284 284 282 280 279 278 277 277 276
276 276 275 275 275 275 274 274 274 274 274 274 273 273 273 273 273 273 273 273 273 273 273 273 274 275 276 277 279 281 282 282 282 281 280 279 278 278 278 277 277 276 276 276 276 276 275 275 275 276 276 277 279 282 284 283 280 280 279 277 277 277
275 274 274 274 274 274 273 273 273 273 273 272 272 271 271 271 271 271 270 270 271 271 271 272 273 274 275 277 279 280 281 282 281 281 280 279 278 278 278 277 277 277 276 276 276 276 275 274 275 275 275 277 278 280 283 283 281 280 279 278 277 277
274 273 273 273 273 273 272 272 272 272 271 271 270 270 269 269 268 269 269 269 269 269 270 271 272 274 275 276 278 280 281 281 281 280 280 279 279 278 278 278 277 277 277 277 276 276 274 274 274 274 275 276 277 279 282 283 281 280 279 277 276 276
273 272 272 272 272 271 271 271 270 270 270 269 269 268 267 267 267 267 267 268 268 268 269 270 272 273 274 275 277 278 280 281 281 280 280 280 280 280 280 279 279 278 278 278 277 276 274 274 274 275 275 276 277 279 281 282 281 280 278 277 276 276
271 271 271 271 271 270 270 269 269 269 268 267 267 266 266 266 266 266 266 267 267 268 269 270 271 272 273 274 276 277 279 280 280 281 281 281 281 280 280 280 280 280 279 278 278 277 276 276 276 276 276 276 277 279 281 282 281 280 278 277 277 276
270 270 270 270 269 269 268 268 267 267 266 266 265 265 265 265 265 265 265 266 266 267 268 268 269 271 272 273 275 277 278 279 280 280 281 281 281 280 280 280 280 280 280 279 278 277 277 277 276 276 276 277 278 279 281 282 281 279 278 277 277 276
269 269 268 268 268 267 267 266 266 265 265 265 264 264 264 264 264 264 264 265 265 266 267 268 269 270 271 273 275 276 278 279 279 279 280 280 281 281 281 280 280 281 280 280 279 278 277 277 277 276 277 277 278 279 281 282 281 279 278 278 277 275
268 267 267 266 266 265 265 265 264 264 264 263 263 263 263 263 263 263 264 264 265 265 267 268 269 271 273 274 276 277 278 279 279 279 279 279 280 280 281 281 281 281 281 281 280 279 277 277 277 277 277 278 278 279 281 281 281 280 279 278 276 274
266 265 265 264 264 264 263 263 263 263 263 262 262 262 262 263 263 264 264 265 265 266 268 269 271 272 273 274 275 276 278 278 279 279 279 279 279 279 279 280 280 281 281 281 281 280 278 278 278 278 278 278 279 279 280 281 281 280 279 278 275 274
264 263 263 263 263 262 262 262 262 262 262 262 262 262 262 263 263 264 264 265 266 267 268 269 269 270 270 271 272 274 276 278 279 279 279 279 278 278 278 279 279 280 280 280 281 280 279 278 278 278 278 279 279 279 281 281 281 280 279 277 275 273
262 262 261 261 261 261 261 261 261 261 262 262 262 262 262 263 263 263 264 265 265 266 266 267 267 267 268 269 270 271 273 275 278 278 278 278 278 278 277 278 278 278 279 280 280 280 280 279 279 278 279 279 279 280 281 281 280 280 279 276 273 272
Wind_Speed
9 15 20 22 25 26 25 23 19 16 16 19 21 22 24 25 27 30 32 34 36 38 39 39 40 41 41 39 35 33 35 37 38 39 40 41 40 41 41 41 43 44 45 46 46 47 46 46 46 45 45 45 44 44 42 41 40 38 37 36 35 33
12 16 18 20 23 25 25 24 22 19 18 18 19 22 22 22 23 25 29 32 33 33 34 37 40 40 39 37 36 35 36 37 37 37 38 39 40 41 41 41 43 44 45 46 46 46 46 46 45 45 45 45 44 44 43 42 41 39 39 38 36 34
17 22 24 25 28 31 32 31 28 26 22 20 19 21 22 22 23 24 26 28 29 30 33 34 35 36 36 35 36 37 38 38 38 39 39 39 40 40 41 42 43 43 44 45 46 46 46 46 46 46 46 45 45 44 44 43 42 41 40 38 37 36
19 26 31 34 35 35 36 35 33 31 27 24 22 22 22 22 24 25 27 28 29 32 33 33 32 32 33 35 36 37 38 39 40 41 40 41 42 41 42 43 43 43 44 45 46 46 46 46 47 47 47 47 46 45 45 45 44 43 41 39 39 38
17 23 27 30 31 31 32 32 33 33 31 28 25 23 24 23 23 25 28 29 31 33 33 33 33 32 32 34 36 38 40 42 42 41 42 43 42 42 43 43 43 43 44 44 45 45 46 47 47 48 49 49 49 48 47 47 47 45 44 43 42 40
16 19 21 23 25 27 29 30 31 33 34 33 30 27 27 25 23 23 24 27 30 32 32 34 34 34 35 36 37 40 42 43 42 42 43 43 41 41 42 43 43 44 44 44 45 46 47 48 48 49 49 50 50 50 49 48 48 47 46 46 45 43
14 13 15 19 22 25 27 28 30 31 32 34 33 32 31 30 27 25 24 25 28 30 32 34 34 34 36 38 40 42 42 42 41 41 42 41 41 41 41 42 43 44 44 46 46 48 49 49 49 49 49 49 49 49 48 48 48 48 47 46 45 44
12 12 16 19 21 24 25 26 27 28 29 32 34 34 34 33 32 29 26 24 25 27 29 31 32 34 37 39 42 42 41 40 40 40 41 41 41 41 41 43 44 44 45 46 47 48 48 48 47 48 48 48 48 47 46 46 46 47 46 46 45 45
12 13 17 20 22 24 24 24 25 26 27 29 33 34 34 35 36 34 31 29 26 25 26 28 30 33 36 39 41 41 40 39 39 40 41 41 41 41 41 42 43 45 46 46 46 46 46 46 46 47 47 47 47 47 46 46 46 45 45 45 45 45
12 13 16 20 22 24 25 25 25 25 26 27 30 32 32 33 34 34 34 32 30 29 29 30 30 31 34 37 38 38 38 38 39 40 40 40 41 42 42 43 44 44 43 43 44 44 44 44 45 46 46 46 46 46 47 47 46 45 44 44 44 44
11 12 15 19 22 24 26 27 28 28 28 29 31 32 33 33 31 31 31 30 29 30 31 31 31 31 33 35 36 37 37 38 38 38 38 40 41 42 42 42 42 41 41 41 41 41 42 44 45 47 47 46 46 46 46 46 46 45 45 44 43 43
11 11 14 18 21 23 24 25 27 28 29 31 32 33 34 34 32 31 31 31 31 31 31 30 30 30 31 33 35 36 37 37 37 37 38 39 40 40 39 39 40 41 41 41 40 40 41 44 45 47 48 49 48 47 46 44 44 44 44 43 42 41
11 11 13 17 21 23 23 24 25 25 27 29 31 33 34 34 33 31 30 30 31 32 31 30 28 27 28 30 32 35 36 36 36 36 36 37 37 37 37 38 40 41 41 40 40 41 42 44 45 46 47 49 49 48 46 45 44 43 42 42 42 42
10 10 12 17 22 24 25 27 26 26 27 28 29 30 31 31 32 32 30 30 31 32 31 30 29 26 25 25 27 30 32 33 33 33 33 34 35 36 37 39 41 41 41 40 41 42 43 43 44 45 46 48 49 49 47 46 44 44 43 43 42 42
9 11 13 17 20 22 25 27 27 27 29 31 31 30 28 28 29 29 30 31 32 34 34 34 33 31 28 26 25 26 27 29 30 31 31 33 34 34 36 38 39 40 40 40 40 41 42 42 42 43 45 47 48 50 48 45 44 44 44 43 43 42
11 14 16 18 19 21 24 25 25 27 30 31 33 32 31 30 30 29 29 30 32 34 36 38 38 37 36 32 28 25 24 26 28 29 30 31 31 32 35 37 38 38 38 39 39 39 39 40 41 41 43 45 46 48 48 45 42 42 43 42 42 42
12 14 16 18 20 21 23 23 25 28 30 30 31 32 32 33 33 32 31 32 33 34 35 37 37 38 38 37 32 27 24 24 26 28 29 29 30 32 34 35 36 36 36 37 37 37 37 39 39 39 41 43 43 44 45 43 41 39 39 39 40 40
13 14 16 18 20 21 22 23 25 28 29 28 28 29 30 31 31 32 33 34 36 37 37 37 37 37 37 37 34 30 27 25 25 26 27 28 29 31 31 32 33 34 35 35 36 37 36 37 37 38 39 40 40 40 41 42 40 38 38 38 39 39
14 15 17 18 19 20 21 24 26 27 28 27 27 28 29 28 27 28 30 32 34 37 38 39 38 37 37 36 34 32 30 28 26 26 25 25 27 28 29 31 32 33 34 34 35 36 35 34 35 38 38 37 39 40 40 40 39 37 36 36 37 37
14 15 16 16 18 20 21 24 27 26 25 26 26 27 27 26 26 27 28 30 32 34 36 36 36 36 36 36 35 34 33 31 28 27 25 25 27 28 29 31 31 31 32 33 34 35 35 34 34 36 36 36 39 40 40 39 37 35 34 33 33 34
14 15 15 15 17 19 21 24 25 24 23 25 25 25 25 25 27 29 30 31 32 33 34 34 34 34 34 35 35 35 34 33 31 28 26 25 27 28 29 29 29 30 31 32 33 34 34 33 33 34 35 36 37 39 40 39 37 35 34 33 32 32
14 13 13 14 16 18 21 22 22 21 21 24 24 23 23 25 27 29 31 32 33 33 33 33 33 33 33 33 34 35 34 33 32 29 27 26 27 28 28 28 29 30 30 30 31 32 33 33 32 33 34 35 36 38 39 40 38 35 33 32 32 32
14 14 14 16 17 19 20 20 20 20 21 22 22 22 24 27 28 30 31 33 34 32 31 31 31 33 33 33 33 34 34 34 32 30 28 27 27 27 27 28 28 28 28 28 29 31 32 33 34 34 34 34 36 39 40 40 40 38 35 34 33 33
16 16 18 19 19 20 20 19 19 21 21 21 22 24 27 29 30 31 33 33 32 30 29 30 32 33 34 34 33 32 34 34 32 30 28 27 27 27 28 27 26 25 25 26 28 30 31 32 34 35 35 34 35 38 40 40 40 38 36 34 32 32
17 19 22 23 22 22 20 18 20 21 21 22 24 26 27 30 31 33 33 32 29 29 30 31 33 33 33 34 33 32 33 33 32 30 28 27 26 26 26 25 24 23 22 23 25 28 30 31 32 34 37 37 35 36 38 38 39 38 36 34 33 32
18 21 25 27 26 24 21 20 21 22 23 24 24 25 27 30 32 32 32 31 31 33 35 35 36 36 35 35 34 32 31 32 31 29 28 27 26 25 24 23 22 21 20 20 23 25 28 30 30 32 36 37 37 37 35 34 36 37 36 33 31 30
19 21 26 31 31 26 22 21 20 23 27 27 25 26 29 30 30 29 31 33 36 39 40 39 40 39 36 35 33 31 31 30 29 28 28 27 25 24 23 21 21 21 20 19 20 23 26 28 29 30 33 35 36 38 36 34 35 36 35 33 30 28
20 21 23 30 34 29 25 24 23 25 29 30 28 28 29 29 29 30 32 36 40 41 41 40 40 39 37 34 32 31 31 29 28 28 28 26 25 25 23 22 21 21 20 19 20 23 26 28 28 29 31 32 33 34 35 35 35 35 36 36 33 29
20 21 21 27 33 32 28 29 29 29 31 31 30 29 29 30 31 32 35 37 39 39 39 38 37 37 36 34 31 30 30 30 29 28 27 26 25 24 23 22 21 19 19 19 19 21 25 28 29 28 29 30 31 31 32 33 35 35 36 37 35 33
21 21 22 27 32 33 30 31 33 33 32 31 30 29 31 33 33 32 35 38 39 38 37 36 34 34 35 34 31 29 28 28 28 28 30 31 29 26 24 23 23 23 22 21 20 22 26 28 28 29 31 32 33 33 31 31 33 34 34 34 34 33
22 23 25 29 33 32 32 33 36 35 32 31 31 30 31 33 34 34 36 39 38 36 35 33 31 32 33 34 33 31 30 31 30 30 33 35 36 35 32 29 28 28 28 26 24 25 26 27 29 34 37 36 35 35 34 33 35 36 35 35 36 35
24 24 27 32 33 33 34 37 39 39 34 31 31 30 30 32 33 34 36 36 35 34 33 31 30 32 33 32 30 29 30 32 33 34 35 36 37 38 39 37 35 33 31 29 29 30 31 33 35 35 33 33 33 35 35 34 34 36 35 36 38 39
26 26 28 32 34 34 36 39 43 43 37 32 31 31 31 32 32 31 32 34 34 34 33 32 32 33 32 30 28 26 27 29 30 32 34 35 35 35 36 37 36 33 30 29 30 31 31 32 31 27 28 31 34 35 35 33 32 34 36 38 39 37
27 27 30 33 35 36 37 40 45 45 39 34 32 31 31 33 32 30 33 36 35 33 31 30 30 30 28 27 26 25 25 25 24 24 26 29 31 31 31 32 32 31 29 28 27 28 29 28 25 24 28 33 34 35 37 35 33 35 37 39 39 35
30 32 35 37 37 39 40 42 45 45 39 35 34 33 33 34 33 33 36 36 34 31 28 27 27 27 25 24 23 23 22 21 18 17 18 21 25 29 32 32 32 31 30 28 26 27 28 28 26 26 29 32 33 35 37 36 35 37 39 40 38 32
34 37 38 39 40 40 41 43 45 44 39 38 37 34 34 34 33 32 34 34 32 30 27 25 24 23 22 22 23 22 23 23 23 20 18 16 15 17 23 29 30 30 29 28 27 26 26 27 27 28 30 32 33 35 37 36 35 37 41 42 38 32
36 38 39 39 39 40 40 43 45 42 38 37 37 35 34 34 33 32 33 33 33 31 28 26 26 26 26 26 26 26 25 26 25 23 21 18 14 12 15 21 25 28 28 28 28 27 26 27 28 29 31 33 33 35 37 36 33 34 37 37 36 33
36 39 40 39 39 39 40 42 42 39 38 38 37 36 36 35 34 33 33 33 32 32 33 34 35 33 32 30 28 28 29 29 26 23 22 21 19 17 16 17 21 24 26 27 28 26 25 27 28 29 31 33 34 37 38 35 31 30 29 29 30 32
Wind_Direction
17 19 11 5 2 357 350 340 325 311 296 280 270 263 253 245 241 238 237 234 231 229 227 227 228 229 229 229 230 230 228 227 226 224 223 222 221 219 218 217 216 216 215 215 216 217 216 217 217 216 216 216 216 217 217 218 217 217 216 216 216 215
36 31 19 14 15 13 8 0 352 345 330 307 290 283 279 272 263 256 250 246 243 240 236 233 232 232 232 231 231 232 233 232 230 228 227 225 223 221 218 218 217 216 215 215 215 215 215 215 215 215 215 215 215 216 216 216 216 216 216 216 215 215
17 18 17 19 20 18 15 11 8 5 352 333 311 295 287 281 274 269 264 259 256 254 250 245 240 237 236 235 234 234 234 234 233 232 231 229 227 223 220 219 218 217 216 215 214 214 214 213 213 213 213 213 213 214 214 215 215 215 215 215 214 214
7 7 10 14 15 14 12 10 10 9 1 351 336 315 301 290 280 272 268 265 263 260 258 257 253 248 243 239 237 237 236 236 235 233 231 230 229 226 223 221 219 218 217 215 214 214 213 213 213 212 212 211 211 211 212 213 213 213 212 212 213 213
10 10 11 12 12 10 9 9 10 9 5 1 353 338 326 316 301 286 276 270 266 263 262 262 260 256 251 245 241 240 238 237 236 234 232 231 229 227 225 223 220 219 217 215 214 213 213 213 213 212 211 211 210 210 210 211 211 211 210 210 211 212
16 15 12 10 8 9 9 9 9 9 6 3 360 353 346 340 329 312 296 283 276 271 267 265 262 259 254 250 246 244 242 239 237 234 233 231 229 227 226 224 222 220 217 215 214 213 213 214 213 212 211 211 211 210 210 210 210 210 210 211 211 210
16 14 11 8 7 7 8 8 8 7 4 2 359 357 353 351 346 334 320 304 290 281 273 268 264 260 256 253 251 249 246 242 238 236 234 231 229 227 226 224 221 219 217 215 215 214 214 214 213 212 211 211 211 210 210 209 209 210 210 210 210 210
12 9 8 8 6 6 5 6 7 5 2 360 358 356 354 353 352 345 335 321 302 288 279 271 266 262 259 257 256 253 250 244 240 237 235 232 230 228 226 224 222 219 218 217 217 216 215 214 213 213 212 211 211 210 210 210 210 210 209 209 210 210
8 5 4 3 2 3 2 3 5 3 1 359 356 354 353 352 352 349 345 336 321 304 291 281 274 268 265 262 260 256 252 247 242 238 236 233 231 228 226 225 223 221 220 219 218 217 216 214 214 214 213 212 210 209 209 209 209 209 209 209 209 210
1 359 359 358 357 357 358 359 1 1 360 357 354 353 352 351 351 350 348 345 338 327 315 302 290 280 274 269 264 259 254 249 244 240 237 234 231 230 228 226 225 224 221 220 219 218 217 216 215 214 213 212 210 209 208 208 208 207 207 208 209 209
355 355 352 352 352 353 354 355 355 356 356 355 353 352 352 351 350 349 349 348 343 336 328 318 306 294 284 276 269 262 257 251 247 243 238 235 233 231 229 227 226 224 221 220 219 218 217 216 216 215 213 211 210 209 209 208 207 206 206 206 206 207
348 349 348 350 350 349 350 351 351 351 351 351 350 349 350 350 349 349 350 350 347 343 338 331 320 306 293 281 272 266 261 255 249 244 240 237 234 232 230 227 225 223 221 219 218 217 217 218 218 217 215 213 211 209 208 208 208 207 205 204 203 204
344 345 347 348 345 344 346 346 346 346 347 347 347 346 347 348 347 347 348 348 348 347 344 340 331 317 301 285 275 268 263 257 252 246 241 238 235 232 229 227 225 223 221 218 217 217 218 219 219 218 216 215 213 210 208 207 207 206 206 205 203 202
340 340 341 342 341 342 342 341 341 343 343 343 341 342 345 346 346 344 344 345 346 347 346 342 337 329 315 299 285 274 266 260 253 247 243 239 236 233 229 227 226 224 221 218 217 218 219 220 220 219 217 215 214 212 210 208 207 206 205 205 204 203
332 332 335 338 337 338 338 338 338 338 338 338 337 339 341 343 343 342 341 342 344 345 346 344 341 337 330 322 308 292 278 266 258 251 246 242 238 234 230 228 226 224 222 218 217 218 219 220 220 219 218 215 214 213 212 209 208 207 206 205 204 203
324 326 331 333 334 335 335 336 335 334 335 336 337 338 340 340 341 340 340 340 341 343 344 344 342 339 336 333 326 311 293 276 266 258 251 245 239 234 231 230 227 225 223 220 219 219 219 220 220 218 217 215 213 213 212 210 209 208 207 206 205 203
318 321 326 329 332 334 333 334 334 333 334 336 336 336 337 337 337 338 338 339 339 340 342 341 340 338 336 334 331 322 305 286 273 263 255 247 240 235 233 231 229 227 224 222 220 220 220 220 219 217 216 214 212 212 212 210 209 208 208 207 206 204
310 314 320 324 327 330 330 331 333 332 331 333 334 333 334 334 334 335 336 337 337 337 338 338 336 334 332 332 330 324 313 298 283 270 259 250 243 238 236 234 232 229 227 224 221 221 221 221 218 215 213 210 208 208 209 209 208 207 206 206 205 204
304 310 315 318 322 326 327 330 332 332 329 329 330 330 330 330 329 331 332 332 332 333 333 333 332 330 329 328 325 322 316 307 294 281 268 253 245 240 236 235 233 231 228 225 222 221 221 220 217 214 210 206 204 205 206 206 206 206 205 205 204 202
304 308 310 314 318 322 327 330 331 330 325 325 327 327 326 325 326 328 328 326 326 326 326 327 327 326 325 323 320 318 315 310 302 291 278 261 250 245 240 237 234 232 229 226 224 222 221 219 216 212 207 203 202 204 204 202 201 202 203 203 202 202
304 305 307 312 315 318 325 327 327 325 321 321 322 321 320 321 324 325 324 322 321 320 320 321 322 323 322 319 316 313 311 308 303 297 285 269 257 250 244 239 234 232 230 227 226 224 221 220 216 209 204 201 200 203 203 199 197 199 200 199 198 199
304 302 302 305 308 312 319 322 321 317 314 314 314 313 314 318 321 322 321 319 318 317 316 317 318 319 318 316 313 310 307 303 300 295 286 274 263 255 248 241 234 231 229 227 225 224 221 220 216 209 204 201 200 203 202 197 196 198 197 195 195 195
300 294 293 296 299 305 312 317 314 308 307 307 305 305 311 317 319 319 318 317 316 314 314 315 316 316 315 314 312 308 304 300 295 290 282 274 265 256 249 243 236 232 229 226 225 223 220 219 217 211 206 203 203 205 203 199 198 199 196 194 195 195
297 292 291 292 295 301 307 310 304 300 301 300 299 305 313 317 318 318 317 316 313 311 312 314 315 314 312 311 310 306 301 297 292 285 277 269 261 253 247 243 238 234 231 227 225 223 221 219 217 213 208 205 206 208 206 202 202 201 197 194 194 196
293 290 290 292 294 298 302 302 298 296 295 292 296 307 314 315 316 317 315 312 309 308 309 311 311 311 310 308 306 302 296 292 286 279 271 262 254 249 244 241 237 233 231 228 224 222 220 218 217 214 210 207 207 209 208 204 204 203 199 196 196 197
290 292 293 294 295 297 298 297 296 294 290 290 299 310 312 312 314 314 311 309 307 306 307 308 307 306 304 302 300 295 289 284 279 272 265 256 247 243 240 236 230 226 225 225 224 222 218 215 214 215 213 209 207 208 206 202 202 204 201 199 200 198
288 292 294 296 297 299 299 298 294 289 288 294 306 312 311 311 312 310 307 305 304 304 305 306 304 301 299 298 294 287 280 276 270 263 257 249 240 237 235 232 226 222 222 224 224 223 219 213 211 212 213 211 209 209 205 198 195 199 201 200 199 198
290 289 291 294 296 298 301 301 296 289 290 299 309 312 310 310 309 306 304 302 301 302 304 304 302 300 298 296 290 281 274 268 261 254 250 244 236 234 234 230 225 222 222 224 226 224 219 213 210 209 210 210 211 214 212 201 191 191 196 198 198 196
290 289 289 291 293 296 299 298 295 292 294 302 308 309 309 308 306 303 301 299 298 299 300 300 298 297 296 294 288 280 272 265 257 250 245 239 233 231 231 230 227 223 220 222 226 223 215 211 210 209 206 205 207 213 216 208 195 188 189 191 192 190
286 288 289 288 290 295 297 294 293 293 296 301 304 307 308 305 302 299 296 295 295 295 294 293 292 291 292 290 286 279 270 263 254 246 242 240 234 229 228 227 225 224 222 219 221 217 208 206 209 210 207 204 202 204 208 205 195 188 185 184 183 181
284 287 288 286 289 294 295 293 293 294 296 299 301 303 304 300 298 296 293 292 293 291 290 289 286 285 286 285 283 280 273 265 257 250 247 247 242 237 234 231 228 227 225 221 218 211 202 203 212 214 210 207 202 200 202 200 192 187 185 180 176 171
285 285 285 286 289 293 293 293 293 294 296 299 300 300 298 294 292 291 290 290 290 288 289 289 286 284 283 281 279 279 277 272 265 256 252 252 250 246 241 239 237 236 231 226 224 219 213 217 221 216 208 205 203 202 202 200 193 186 181 175 171 168
287 285 284 286 290 292 292 293 293 294 296 299 300 298 294 289 287 286 285 286 286 286 287 286 283 283 282 278 275 274 275 275 271 261 253 250 251 250 245 240 240 239 234 229 228 226 223 224 223 213 202 202 203 202 204 201 192 184 178 172 168 167
291 289 288 290 292 292 293 292 292 293 297 299 299 296 291 287 283 281 281 282 283 284 284 281 278 278 277 274 272 270 267 268 269 266 258 251 248 247 245 240 238 237 233 229 226 224 221 219 215 207 202 202 201 202 204 201 190 181 177 173 170 170
292 292 292 292 293 293 293 291 290 292 297 299 297 294 288 284 279 276 276 278 280 281 278 272 270 270 268 267 269 269 267 265 262 261 263 257 249 246 245 242 240 237 233 229 224 220 219 216 210 204 203 202 201 201 203 201 191 180 176 174 173 173
293 292 292 292 292 293 291 289 289 293 297 297 295 291 286 281 277 274 274 276 276 275 270 265 265 270 273 277 278 277 274 269 262 257 259 258 251 244 242 241 240 236 233 230 225 219 215 210 206 203 202 202 201 202 202 199 191 182 179 179 178 177
292 290 290 291 291 290 288 287 289 294 296 295 293 289 284 281 279 276 276 277 276 275 274 274 277 280 282 282 280 276 272 267 261 253 248 245 243 239 237 236 234 231 229 227 224 219 213 207 203 201 202 202 201 201 201 196 188 184 184 182 180 178
290 289 290 290 289 287 285 286 289 293 294 292 290 287 284 282 281 279 278 277 276 276 277 279 279 277 275 273 271 270 271 270 263 251 242 239 238 235 235 235 232 229 227 226 224 219 212 207 204 201 203 204 202 200 199 194 186 185 183 179 176 177